Location: *
(50.8667°S, 179.2667°W)
Time: 04:53:22
(UTC+00:00)

Resurs 1-4 Rocket - Pass Details

Date: 02 October 2023
Orbit: 800 x 812 km, 98.7° (Epoch: 10 December)

Event Time Altitude Azimuth Distance (km) Brightness Sun altitude
Exits shadow 13:14:24 29° 218° (SW) 1,475 3.6 -32.4°
Drops below altitude 10° 13:17:09 10° 203° (SSW) 2,442 5.0 -32.2°
Sets 13:19:35 0° 198° (SSW) 3,381 5.9 -32.0°
